CAPE
918 1106 299 181 207 494 975 935 594 293 141 56 34 9 0 1 3 17 33 26 38 36 59 26 8 0 40 20 33 87 75 0 0 1 1 1 1 1 1 0 0 0 0
1164 1330 1211 1229 1252 1387 1156 724 351 268 42 0 0 0 0 0 0 6 37 61 50 19 14 0 0 41 0 0 0 23 61 0 0 0 1 3 1 1 0 0 0 0 0
1218 1126 1119 1491 1309 1036 1002 551 434 211 80 0 0 0 0 0 0 0 0 13 7 7 11 19 26 27 36 0 1 1 1 0 0 0 1 1 1 1 1 1 0 0 1
612 1199 1583 1493 1111 820 813 638 535 323 233 96 57 2 0 0 0 0 0 0 0 0 0 0 0 18 19 2 1 1 0 1 3 1 3 0 0 1 0 0 1 0 1
1045 1476 1604 1310 1138 875 904 836 681 537 370 270 159 0 0 0 0 5 0 0 0 0 0 0 0 0 0 0 0 1 0 0 1 2 2 2 1 1 1 1 1 0 0
1552 1481 1500 1307 1043 1008 985 971 857 571 438 185 11 0 0 0 0 0 0 0 0 0 0 0 0 0 0 0 0 0 0 0 0 0 0 0 0 0 0 1 0 0 0
1507 1557 1528 1464 1136 1115 957 976 849 634 297 140 23 7 0 0 0 0 0 0 0 0 0 0 0 0 0 0 0 0 0 0 0 0 0 0 0 0 0 1 0 0 0
1690 1748 1604 1323 1121 805 615 643 360 344 246 135 78 16 5 1 0 0 0 0 0 0 0 0 0 0 0 0 0 0 0 0 0 0 0 0 0 0 0 0 0 0 0
1310 1015 790 559 369 222 200 58 44 151 244 199 121 62 6 0 0 0 0 0 0 0 0 0 0 0 0 0 0 0 0 0 0 0 0 0 0 0 0 0 0 0 0
320 157 67 87 85 82 76 91 84 0 0 63 199 94 58 39 0 0 0 0 0 0 0 0 0 0 0 0 0 0 0 0 0 0 0 0 0 0 0 0 0 0 0
0 0 0 0 0 8 1 0 0 0 0 0 0 36 72 30 3 0 0 0 0 0 0 0 0 0 0 0 0 0 0 0 0 0 0 0 0 0 0 0 0 0 0
0 0 0 0 0 0 0 0 0 0 0 0 0 0 12 82 9 0 0 0 0 0 0 0 0 0 0 0 0 0 0 0 0 0 0 0 1 0 0 0 0 0 0
4 1 0 0 0 0 0 0 1 0 0 1 3 22 98 167 2 0 0 1 0 0 0 0 0 1 0 0 0 0 0 0 0 0 0 0 0 0 0 0 0 0 0
0 0 0 1 4 0 1 1 2 0 0 0 0 64 234 146 27 3 4 1 1 0 0 0 0 0 1 0 0 0 0 0 0 0 0 0 0 0 0 0 1 0 0
0 0 0 0 1 1 2 1 1 2 17 9 6 40 84 195 141 0 0 4 1 0 1 1 0 0 0 1 0 0 0 0 0 0 0 0 0 0 0 0 1 0 0
0 0 0 0 0 0 1 1 1 0 1 0 2 74 1 36 5 1 1 1 1 1 0 0 0 0 0 0 0 0 0 0 0 0 0 0 0 0 0 0 0 4 1
0 0 0 0 0 0 1 2 1 0 1 1 1 0 2 0 2 4 2 2 1 1 0 1 0 0 0 0 0 0 0 0 0 0 0 0 0 0 0 0 0 0 0
0 0 0 0 0 0 1 1 4 1 0 0 0 3 1 2 1 2 1 1 1 1 3 1 1 1 1 1 1 1 1 1 1 0 0 0 0 0 0 0 0 1 0
0 0 0 0 0 0 0 0 2 4 3 2 1 0 1 1 1 1 0 1 2 0 0 0 0 0 1 2 0 0 0 0 0 0 0 0 0 0 0 0 0 0 0
0 0 0 0 0 0 0 0 1 0 0 1 2 0 0 0 0 0 0 0 0 0 1 1 1 1 0 0 0 0 0 0 0 0 0 0 0 0 0 0 0 0 0
0 0 0 0 0 1 3 0 0 0 0 0 0 1 0 0 0 0 0 1 0 2 1 0 1 0 0 0 0 0 0 0 0 0 0 0 0 0 0 0 0 0 0
0 0 0 0 0 0 0 3 0 0 1 1 0 0 0 1 1 2 1 1 1 0 0 0 0 0 0 0 0 0 0 0 0 0 0 0 0 0 0 0 0 0 0
0 0 0 0 0 0 0 0 0 0 0 5 1 0 0 0 1 3 2 1 1 1 0 0 0 0 0 0 0 0 0 0 0 0 0 0 0 0 0 0 0 0 0
0 0 0 0 0 0 0 1 0 9 9 0 0 0 0 0 0 0 0 0 0 0 0 0 0 0 0 0 0 0 0 0 0 0 0 0 0 0 0 0 0 0 0
0 0 0 0 0 0 0 0 0 0 0 0 0 0 0 0 0 0 0 0 0 0 0 0 0 0 0 0 0 0 0 0 0 0 0 0 0 0 0 0 0 0 0
0 0 0 0 0 0 0 0 0 0 0 0 0 0 0 0 0 0 0 0 0 0 0 0 0 0 0 0 0 0 0 0 0 0 0 0 0 0 0 0 0 0 0
CIN
-345 -266 -446 -455 -399 -297 -142 -120 -173 -242 -276 -246 -211 -178 -0 -36 -35 -99 -88 -110 -99 -108 -102 -102 -32 -0 -82 -103 -102 -68 -61 -0 -0 -0 -0 -0 -0 -0 -0 -0 -0 -0 -0
-305 -208 -183 -162 -149 -115 -109 -156 -245 -253 -365 -0 -0 -0 -0 -0 -0 -149 -100 -66 -69 -104 -114 -0 -0 -71 -0 -0 -0 -81 -89 -0 -0 -0 -0 -0 -0 -0 -0 -0 -0 -0 -0
-291 -275 -226 -119 -152 -195 -190 -226 -257 -316 -336 -0 -0 -0 -0 -0 -0 -0 -0 -161 -153 -144 -119 -89 -72 -95 -80 -0 -0 -0 -0 -0 -0 -0 -0 -0 -0 -0 -0 -0 -0 -0 -0
-454 -291 -162 -143 -229 -263 -259 -259 -242 -288 -277 -313 -259 -118 -0 -0 -0 -0 -0 -0 -0 -0 -0 -0 -0 -53 -104 -65 -0 -0 -0 -0 -0 -0 -0 -0 -0 -0 -0 -0 -0 -0 -0
-328 -238 -173 -212 -257 -295 -264 -256 -257 -250 -267 -275 -266 -0 -0 -0 -0 -140 -0 -0 -0 -0 -0 -0 -0 -0 -0 -0 -0 -0 -0 -0 -0 -0 -0 -0 -0 -0 -0 -0 -0 -0 -0
-213 -258 -233 -214 -284 -281 -273 -257 -256 -283 -291 -397 -511 -0 -0 -0 -0 -0 -0 -0 -0 -0 -0 -0 -0 -0 -0 -0 -0 -0 -0 -0 -0 -0 -0 -0 -0 -0 -0 -0 -0 -0 -0
-257 -225 -239 -210 -281 -269 -277 -246 -241 -254 -307 -320 -494 -564 -0 -0 -0 -0 -0 -0 -0 -0 -0 -0 -0 -0 -0 -0 -0 -0 -0 -0 -0 -0 -0 -0 -0 -0 -0 -0 -0 -0 -0
-243 -213 -215 -238 -276 -352 -355 -304 -351 -338 -346 -409 -440 -564 -556 -538 -0 -0 -0 -0 -0 -0 -0 -0 -0 -0 -0 -0 -0 -0 -0 -0 -0 -0 -0 -0 -0 -0 -0 -0 -0 -0 -0
-308 -365 -425 -450 -469 -524 -506 -514 -381 -362 -323 -334 -421 -434 -496 -0 -0 -0 -0 -0 -0 -0 -0 -0 -0 -0 -0 -0 -0 -0 -0 -0 -0 -0 -0 -0 -0 -0 -0 -0 -0 -0 -0
-532 -617 -704 -672 -577 -549 -494 -403 -332 -0 -0 -282 -285 -342 -369 -383 -0 -0 -0 -0 -0 -0 -0 -0 -0 -0 -0 -0 -0 -0 -0 -0 -0 -0 -0 -0 -0 -0 -0 -0 -0 -0 -0
-0 -0 -0 -0 -0 -374 -117 -0 -0 -0 -0 -0 -0 -139 -219 -310 -81 -0 -0 -0 -0 -0 -0 -0 -0 -0 -0 -0 -0 -0 -0 -0 -0 -0 -0 -0 -0 -0 -0 -0 -0 -0 -0
-0 -0 -0 -0 -0 -0 -0 -0 -0 -0 -0 -0 -0 -0 -75 -181 -136 -0 -0 -0 -0 -0 -0 -0 -0 -0 -0 -0 -0 -0 -0 -0 -0 -0 -0 -0 -0 -0 -0 -0 -0 -0 -0
-0 -0 -0 -0 -0 -0 -0 -0 -0 -0 -0 -0 -0 -1 -22 -97 -136 -0 -0 -0 -0 -0 -0 -0 -0 -0 -0 -0 -0 -0 -0 -0 -0 -0 -0 -0 -0 -0 -0 -0 -0 -0 -0
-0 -0 -0 -0 -0 -0 -0 -0 -0 -0 -0 -0 -0 -3 -20 -88 -137 -0 -0 -0 -0 -0 -0 -0 -0 -0 -0 -0 -0 -0 -0 -0 -0 -0 -0 -0 -0 -0 -0 -0 -0 -0 -0
-0 -0 -0 -0 -0 -0 -0 -0 -0 -0 -75 -72 -81 -36 -77 -85 -124 -0 -0 -0 -0 -0 -0 -0 -0 -0 -0 -0 -0 -0 -0 -0 -0 -0 -0 -0 -0 -0 -0 -43 -0 -0 -0
-0 -0 -0 -0 -0 -0 -0 -0 -0 -0 -0 -0 -0 -131 -16 -170 -31 -0 -0 -0 -0 -0 -0 -0 -0 -0 -0 -0 -0 -0 -0 -0 -0 -0 -0 -0 -0 -0 -0 -0 -0 -60 -0
-0 -0 -0 -0 -0 -0 -0 -0 -0 -0 -0 -0 -0 -0 -257 -0 -42 -61 -0 -0 -0 -0 -2 -0 -0 -0 -0 -0 -0 -0 -0 -0 -0 -0 -0 -0 -0 -0 -0 -0 -0 -0 -0
-0 -0 -0 -0 -0 -0 -0 -0 -0 -0 -0 -0 -0 -0 -0 -0 -0 -0 -0 -0 -0 -0 -0 -0 -0 -0 -0 -0 -0 -0 -0 -0 -0 -0 -0 -0 -0 -0 -0 -0 -0 -0 -0
-0 -0 -0 -0 -0 -0 -0 -0 -0 -0 -0 -0 -0 -0 -0 -0 -0 -0 -0 -0 -0 -0 -0 -0 -0 -0 -44 -82 -0 -0 -0 -0 -0 -0 -0 -0 -0 -0 -0 -0 -0 -0 -0
-0 -0 -0 -0 -0 -0 -0 -0 -76 -46 -0 -0 -0 -0 -0 -0 -0 -0 -0 -0 -0 -0 -0 -0 -0 -0 -0 -0 -0 -0 -0 -0 -0 -0 -0 -0 -0 -0 -0 -0 -0 -0 -0
-0 -0 -0 -0 -0 -66 -73 -0 -0 -0 -30 -0 -0 -0 -0 -0 -0 -0 -0 -0 -0 -0 -0 -0 -0 -0 -0 -0 -0 -0 -0 -0 -0 -0 -0 -0 -0 -0 -0 -0 -0 -0 -0
-0 -0 -0 -0 -0 -0 -0 -236 -0 -0 -79 -25 -21 -0 -0 -0 -7 -0 -0 -0 -0 -0 -0 -0 -0 -0 -0 -0 -0 -0 -0 -0 -0 -0 -0 -0 -0 -0 -0 -0 -0 -0 -0
-0 -0 -0 -0 -0 -0 -0 -0 -0 -0 -0 -59 -29 -0 -0 -0 -0 -0 -0 -0 -0 -0 -0 -0 -0 -0 -0 -0 -0 -0 -0 -0 -0 -0 -0 -0 -0 -0 -0 -0 -0 -0 -0
-0 -0 -0 -0 -0 -0 -0 -22 -6 -128 -98 -13 -0 -0 -0 -0 -0 -0 -0 -0 -0 -0 -0 -0 -0 -0 -0 -0 -0 -0 -0 -0 -0 -0 -0 -0 -0 -0 -0 -0 -0 -0 -0
-0 -0 -0 -0 -0 -0 -0 -0 -0 -0 -0 -0 -0 -0 -0 -0 -0 -0 -0 -0 -0 -0 -0 -0 -0 -0 -0 -0 -0 -0 -0 -0 -0 -0 -0 -0 -0 -0 -0 -0 -0 -0 -0
-0 -0 -0 -0 -0 -0 -0 -0 -0 -0 -0 -0 -0 -0 -0 -0 -0 -0 -0 -0 -0 -0 -0 -0 -0 -0 -0 -0 -0 -0 -0 -0 -0 -0 -0 -0 -0 -0 -0 -0 -0 -0 -0
Wind_Speed
6 6 7 5 5 3 4 3 4 3 4 4 5 5 5 3 3 4 4 3 5 4 3 5 5 4 4 4 3 3 4 4 3 1 1 2 2 4 3 3 4 4 3
6 6 6 6 5 5 4 4 4 4 4 5 4 3 3 4 5 5 4 4 5 5 5 4 5 3 5 5 4 5 5 5 4 5 2 2 2 3 3 4 3 3 3
7 7 5 5 6 6 7 6 5 6 4 3 2 2 3 4 4 5 5 4 5 5 5 5 5 3 3 2 3 3 3 4 3 4 3 1 2 1 3 3 3 3 2
7 7 7 7 7 6 6 7 6 6 6 5 4 3 4 4 4 5 5 5 4 4 4 4 4 4 4 3 2 2 3 3 3 4 3 3 2 2 2 2 2 2 2
8 7 7 7 7 7 7 7 7 6 6 6 6 4 3 3 3 5 6 5 5 4 2 2 4 5 5 5 3 4 5 3 4 4 4 2 3 3 3 3 2 2 1
7 7 7 6 6 7 7 7 7 7 8 8 7 8 7 4 7 9 7 5 5 6 6 3 2 3 3 6 8 10 8 7 4 3 3 5 5 4 4 5 4 3 3
7 6 6 7 7 7 8 7 7 6 5 7 8 7 8 8 9 8 8 5 5 6 6 5 3 3 3 1 5 8 9 8 6 6 6 4 5 6 6 6 4 3 3
6 6 4 4 4 6 7 7 6 7 10 10 10 11 9 7 12 13 10 6 5 6 6 7 6 5 4 4 4 4 4 5 5 4 6 6 5 6 9 7 7 4 2
5 4 5 7 8 7 8 9 6 5 8 9 7 10 10 9 12 13 11 7 6 6 6 6 6 6 7 8 5 5 4 3 1 7 8 8 8 10 7 5 4 4 3
3 3 1 1 4 6 5 6 4 3 6 4 5 8 11 12 14 14 12 6 6 5 4 6 8 8 10 11 6 6 5 4 3 2 2 4 4 5 11 8 6 6 2
6 4 5 4 4 4 4 4 5 7 5 8 8 6 9 12 10 16 15 7 7 5 5 4 4 9 11 13 9 6 6 5 5 4 2 2 3 2 2 3 4 4 4
5 4 4 5 4 4 6 7 8 8 10 14 13 13 8 8 11 15 18 9 9 5 4 3 4 8 9 9 8 8 8 7 4 3 2 2 3 3 4 4 5 4 3
6 6 4 6 7 7 8 10 8 10 9 10 14 13 9 6 6 13 17 15 12 5 4 4 5 7 9 5 5 7 8 4 4 4 4 4 3 3 4 3 4 5 4
7 7 7 8 9 7 6 7 7 7 6 7 5 4 4 4 4 5 7 8 8 6 7 4 5 3 5 6 4 5 3 4 4 3 3 2 2 3 4 4 3 3 4
6 4 4 4 6 9 9 3 4 8 4 5 4 4 3 5 6 8 11 10 8 8 5 4 3 3 3 3 4 5 4 4 4 3 3 3 1 1 2 4 3 3 5
3 5 4 4 5 6 7 6 8 4 6 9 9 6 4 8 11 12 12 17 18 15 6 6 5 6 7 7 6 5 3 5 4 4 3 3 3 3 2 2 2 4 5
5 6 4 5 5 6 7 8 5 3 9 13 5 5 8 12 17 19 18 12 12 11 6 8 8 8 5 6 6 5 5 5 4 3 3 3 3 2 3 2 1 2 1
6 5 4 4 5 6 6 7 5 5 5 6 11 10 12 7 6 11 14 11 4 4 4 4 5 5 6 6 4 3 4 4 3 3 3 3 2 2 3 2 2 1 1
5 4 4 4 4 5 5 4 4 5 4 4 3 6 8 11 8 5 2 4 5 3 3 3 3 4 4 4 4 4 5 6 6 3 3 3 3 3 3 3 3 4 2
5 6 5 4 4 5 4 4 3 3 3 4 4 3 3 5 4 4 5 4 5 3 4 4 4 6 5 4 4 4 5 6 4 4 4 4 3 3 3 3 3 3 2
4 5 6 4 4 4 3 3 2 3 2 3 2 3 6 2 3 2 3 2 3 5 6 6 5 6 6 5 5 5 5 4 4 4 4 4 3 2 2 2 2 2 1
4 5 4 4 4 5 4 3 3 1 2 2 2 3 5 2 3 5 5 5 6 7 6 7 6 6 5 5 5 6 6 5 4 3 4 3 3 3 2 2 1 2 2
4 5 5 4 4 6 4 3 3 3 3 3 3 3 4 5 6 6 6 6 8 7 6 6 6 6 5 6 5 5 6 5 3 3 4 4 3 3 1 2 2 1 1
4 5 5 4 4 2 0 2 4 2 3 3 4 4 4 6 7 7 6 6 8 7 7 7 7 8 7 6 5 5 4 4 3 4 5 4 3 3 4 3 2 1 1
4 4 4 2 2 3 3 3 4 5 5 5 4 4 4 5 7 7 6 6 7 8 8 6 6 7 8 8 7 7 5 5 4 2 3 4 5 4 3 3 2 2 1
4 4 4 3 4 4 5 5 5 3 6 5 6 6 5 4 5 6 6 7 6 7 7 5 6 8 8 6 7 6 6 6 6 6 4 5 5 4 4 4 5 2 1
Wind_Direction
154 149 157 193 184 180 228 220 192 159 162 180 185 164 167 182 178 188 189 168 199 212 212 211 224 218 218 219 213 194 178 160 137 145 125 174 129 132 98 86 89 76 49
151 160 171 173 179 176 170 192 180 169 173 178 172 154 170 170 186 178 185 167 192 208 224 221 229 215 234 229 210 210 197 174 136 151 146 173 183 140 113 100 71 58 66
154 156 154 183 174 178 169 178 170 162 172 176 156 185 208 199 182 184 197 195 201 203 201 208 226 225 249 258 247 211 165 152 150 144 138 115 82 109 117 108 96 71 66
167 157 167 186 181 181 168 168 177 175 167 167 182 221 213 181 178 184 192 180 180 196 210 223 216 215 228 211 212 159 132 135 122 132 114 109 111 117 94 114 100 58 54
172 167 185 189 176 169 172 176 171 179 179 173 172 181 237 215 205 181 186 191 180 177 190 254 259 239 218 195 151 138 122 113 128 129 121 124 129 145 173 140 116 120 72
192 180 172 181 174 181 183 182 178 186 184 175 181 175 191 211 222 203 180 185 192 185 189 212 259 262 251 190 159 159 162 152 152 144 142 170 172 159 147 167 135 145 196
178 181 173 187 190 190 189 182 194 191 188 210 188 193 193 194 201 222 201 198 199 223 189 189 206 220 230 243 160 158 169 182 170 164 167 179 173 179 167 169 175 151 192
166 181 178 177 177 158 158 172 177 194 203 200 206 192 190 206 193 187 194 185 203 226 215 197 186 203 202 188 159 171 178 185 183 178 185 191 179 172 191 188 180 156 112
167 155 165 164 172 177 184 196 210 209 224 221 200 192 195 214 204 197 166 171 184 220 223 210 197 200 198 184 179 192 163 202 195 219 202 189 174 169 159 136 162 157 205
104 138 180 203 189 189 209 248 261 296 293 272 243 222 208 207 200 191 173 161 185 194 206 227 211 197 184 181 178 180 182 207 171 137 90 78 162 186 178 192 172 185 150
37 348 322 312 287 281 277 288 300 298 282 278 274 249 231 213 199 190 175 171 191 191 193 197 218 208 196 189 186 186 202 157 174 159 144 114 126 150 193 222 190 185 179
4 336 311 283 265 270 268 276 274 269 269 265 254 246 227 213 198 193 179 168 150 169 185 191 219 212 210 196 182 199 179 158 146 163 165 198 188 191 198 201 219 239 262
10 340 301 281 272 256 241 249 259 256 257 262 249 223 213 194 199 189 158 150 162 142 153 170 193 222 188 193 208 175 156 166 159 169 200 200 190 179 168 185 216 234 253
27 14 358 341 318 282 260 254 258 260 253 256 303 187 143 157 184 171 173 171 172 169 168 171 157 164 208 160 149 193 192 156 170 183 199 221 159 172 194 177 192 211 232
30 5 8 347 334 321 310 318 297 278 323 223 221 206 207 197 205 175 169 175 180 200 176 126 162 148 175 189 180 173 206 172 175 179 176 185 215 205 230 180 186 171 227
24 23 350 344 347 331 323 308 79 39 21 26 321 224 164 175 173 169 191 175 176 176 189 197 188 189 184 177 187 177 202 191 182 208 207 194 198 222 223 279 185 215 213
11 353 341 358 352 338 340 338 316 202 85 46 42 337 198 153 157 170 194 186 185 165 214 205 193 180 176 155 174 173 203 201 155 188 186 176 185 219 179 215 169 199 173
4 344 339 331 339 338 354 348 357 360 359 5 14 8 43 69 133 156 150 136 140 204 206 159 152 157 160 164 154 132 134 135 114 112 112 117 109 166 163 155 148 309 73
344 333 333 322 327 328 330 22 11 357 22 21 12 20 38 75 96 89 12 126 138 111 125 99 101 94 93 109 119 123 145 151 104 119 99 96 97 115 104 115 120 118 122
320 319 330 325 320 320 341 337 23 56 31 32 30 3 337 27 26 41 60 50 61 97 89 98 86 96 98 94 99 101 81 71 86 93 100 96 92 88 91 89 82 88 59
308 320 325 319 297 287 273 289 316 347 101 90 41 6 8 53 98 87 93 112 143 131 108 106 100 96 94 98 98 95 97 103 99 102 121 128 125 105 93 99 115 153 140
321 299 300 280 284 284 267 213 228 167 121 86 56 41 45 96 77 76 73 75 83 84 85 94 82 79 87 95 97 97 91 83 76 81 74 68 86 105 110 122 155 112 101
287 285 286 280 271 282 268 198 198 207 153 138 94 64 55 76 78 70 76 77 82 84 77 84 96 89 79 78 71 79 99 95 91 94 91 81 70 62 91 103 112 101 172
283 279 268 267 281 279 174 193 158 136 99 37 66 84 98 107 94 83 79 84 84 84 85 89 88 92 83 76 81 82 87 83 85 87 94 97 87 74 79 84 80 42 331
332 329 326 315 98 94 70 61 88 99 100 98 80 83 68 76 90 86 84 80 82 84 73 74 80 89 88 92 90 91 90 87 85 98 102 104 92 75 81 77 76 54 18
357 14 30 42 61 78 88 85 70 77 89 80 76 69 66 82 97 100 98 100 99 90 87 71 84 93 87 75 78 75 62 64 65 65 80 80 82 60 60 60 48 65 3